Stations météo

Publicité
Montelimar, France (7577): Température de l'air & dewpoint: 19.03.2019 13:00:00 - 25.03.2019 13:00:00 (CET)Montelimar, France (7577): Température de l'air 5cm: 19.03.2019 13:00:00 - 25.03.2019 13:00:00 (CET)Montelimar, France (7577): Température de l'air -20cm & Température de l'air -100cm: 19.03.2019 13:00:00 - 25.03.2019 13:00:00 (CET)Montelimar, France (7577): Vitesse du vent & gusts: 19.03.2019 13:00:00 - 25.03.2019 13:00:00 (CET)Montelimar, France (7577): Direction du vent: 19.03.2019 13:00:00 - 25.03.2019 13:00:00 (CET)Montelimar, France (7577): reduced air pressure: 19.03.2019 13:00:00 - 25.03.2019 13:00:00 (CET)Montelimar, France (7577): visibility: 19.03.2019 13:00:00 - 25.03.2019 13:00:00 (CET)Montelimar, France (7577): Ensoleillement: 19.03.2019 13:00:00 - 25.03.2019 13:00:00 (CET)Montelimar, France (7577): Quantités de précipitations: 19.03.2019 13:00:00 - 25.03.2019 13:00:00 (CET)
Date & Time tt [°C] td [°C] tt 5cm [°C] tt -20cm [°C] tt -100cm [°C] ff [km/h] ff [knt] fx [km/h] fx [knt] dd ppp [hPa] vv [km] sd [min] rr [mm]
25.03.2019 13:00:00 14,7 2,9 16,9 11,7 11,1 38 20 72 39 NNE 1019,3 17 52 0,0
25.03.2019 12:00:00 14,6 3,1 18,2 11,7 11,1 43 23 65 35 NNE 1020,1 16 60 0,0
25.03.2019 11:00:00 13,5 4,9 16,8 11,7 11,1 31 17 62 34 NNE 1021,0 14 60 0,0
25.03.2019 10:00:00 12,2 4,9 15,0 11,8 11,1 29 16 51 28 NNE 1021,4 11 60 0,0
25.03.2019 09:00:00 11,5 5,1 10,8 11,9 11,1 25 13 48 26 NNE 1021,6 8 46 0,0
25.03.2019 08:00:00 10,4 5,0 9,4 12,0 11,1 22 12 49 26 NNE 1021,7 7 0 0,0
25.03.2019 07:00:00 10,1 4,5 9,0 12,0 11,1 25 14 54 29 NNE 1021,7 7 0 0,0
25.03.2019 06:00:00 10,1 4,7 9,0 12,1 11,1 23 13 47 25 NNE 1021,4 7 0 0,0
25.03.2019 05:00:00 10,2 4,6 9,1 12,2 11,1 23 12 41 22 NNE 1021,5 7 0 0,0
25.03.2019 04:00:00 10,7 4,6 9,5 12,2 11,1 18 10 37 20 NNE 1021,7 8 0 0,0
25.03.2019 03:00:00 11,5 4,5 10,3 12,3 11,0 21 11 38 21 NNE 1022,0 10 0 0,0
25.03.2019 02:00:00 12,4 4,1 10,9 12,3 11,0 17 9 35 19 NNE 1022,2 12 0 0,0
25.03.2019 01:00:00 12,6 4,3 10,9 12,3 11,0 17 9 48 26 NNE 1022,1 15 0 0,0
25.03.2019 00:00:00 13,9 4,2 12,8 12,3 11,0 29 16 49 27 NNE 1022,1 17 0 0,0
24.03.2019 23:00:00 15,2 4,8 13,5 12,3 11,0 18 10 41 22 N 1022,0 20 0 0,0
24.03.2019 22:00:00 16,6 5,2 14,4 12,3 11,0 19 10 41 22 N 1021,7 19 0 0,0
24.03.2019 21:00:00 17,7 4,3 14,7 12,2 11,0 18 10 37 20 N 1021,3 20 0 0,0
24.03.2019 20:00:00 18,4 4,2 14,8 12,1 11,0 13 7 25 14 NNW 1020,9 20 0 0,0
24.03.2019 19:00:00 18,8 3,4 15,9 11,9 11,0 12 7 27 15 N 1020,5 20 26 0,0
24.03.2019 18:00:00 20,4 4,0 20,1 11,8 11,0 16 9 31 17 N 1019,9 20 60 0,0
24.03.2019 17:00:00 21,5 4,1 23,7 11,6 11,0 16 9 32 17 N 1019,9 20 60 0,0
24.03.2019 16:00:00 22,0 2,6 25,9 11,4 11,0 19 10 29 16 NNE 1020,2 20 60 0,0
24.03.2019 15:00:00 21,7 1,9 26,7 11,3 11,0 19 10 34 18 NNE 1020,7 20 60 0,0
24.03.2019 14:00:00 21,3 1,5 26,0 11,2 11,0 20 11 32 17 NNE 1021,5 19 60 0,0
24.03.2019 13:00:00 19,9 4,4 24,4 11,1 10,9 18 10 33 18 NNE 1022,7 19 60 0,0
24.03.2019 12:00:00 18,6 5,4 22,1 11,1 10,9 17 9 34 19 NNE 1023,5 19 60 0,0
24.03.2019 11:00:00 16,3 4,6 19,1 11,2 10,9 19 10 32 18 NE 1024,1 19 60 0,0
24.03.2019 10:00:00 14,1 4,4 17,7 11,3 10,9 24 13 34 18 NNE 1024,5 16 60 0,0
24.03.2019 09:00:00 11,8 3,8 12,8 11,3 10,9 15 8 29 15 NNE 1024,9 20 60 0,0
24.03.2019 08:00:00 9,6 3,3 7,7 11,4 10,9 16 8 23 12 NNE 1024,8 20 43 0,0
24.03.2019 07:00:00 8,3 2,9 7,1 11,5 10,9 14 8 27 15 NNE 1024,6 20 1 0,0
24.03.2019 06:00:00 9,0 2,8 7,6 11,6 10,9 14 8 23 12 NNE 1024,4 20 0 0,0
24.03.2019 05:00:00 9,8 3,5 6,6 11,6 10,9 13 7 21 11 NNE 1024,4 20 0 0,0
24.03.2019 04:00:00 10,3 3,3 5,4 11,7 10,9 11 6 19 10 NNE 1024,1 20 0 0,0
24.03.2019 03:00:00 11,0 3,0 6,3 11,7 10,9 5 3 22 12 NNE 1024,0 20 0 0,0
24.03.2019 02:00:00 12,4 2,8 10,3 11,7 10,9 12 6 22 12 NE 1023,9 20 0 0,0
24.03.2019 01:00:00 13,3 3,1 11,7 11,7 10,9 13 7 28 15 NE 1023,9 20 0 0,0
24.03.2019 00:00:00 14,3 3,7 12,3 11,7 10,9 17 9 32 18 N 1023,9 20 0 0,0
23.03.2019 23:00:00 15,2 3,3 12,9 11,7 10,8 14 8 26 14 N 1024,0 20 0 0,0
23.03.2019 22:00:00 15,8 2,9 13,5 11,7 10,8 13 7 29 16 N 1024,0 20 0 0,0
23.03.2019 21:00:00 16,9 2,8 14,9 11,6 10,8 17 9 40 22 N 1023,5 20 0 0,0
23.03.2019 20:00:00 18,5 1,9 16,1 11,5 10,9 16 9 35 19 N 1023,3 20 0 0,0
23.03.2019 19:00:00 19,7 0,7 17,1 11,3 10,8 19 10 42 23 N 1022,7 20 28 0,0
23.03.2019 18:00:00 20,8 1,6 20,0 11,2 10,8 24 13 46 25 N 1022,4 20 60 0,0
23.03.2019 17:00:00 21,2 2,0 23,2 11,0 10,8 24 13 44 24 N 1022,4 20 60 0,0
23.03.2019 16:00:00 21,6 1,8 25,3 10,8 10,8 26 14 48 26 NNE 1022,6 20 60 0,0
23.03.2019 15:00:00 21,8 0,9 25,9 10,7 10,8 29 16 52 28 NNE 1022,9 20 60 0,0
23.03.2019 14:00:00 21,6 2,3 25,7 10,6 10,8 23 12 52 28 N 1023,6 20 60 0,0
23.03.2019 13:00:00 20,8 2,1 24,1 10,5 10,8 25 14 42 23 NNE 1024,3 20 60 0,0
23.03.2019 12:00:00 19,7 1,6 22,8 10,6 10,8 26 14 49 26 NNE 1025,1 20 60 0,0
23.03.2019 11:00:00 17,8 2,5 18,9 10,6 10,8 23 12 45 25 NNE 1025,6 19 60 0,0
23.03.2019 10:00:00 14,6 3,1 16,1 10,6 10,8 24 13 44 24 NNE 1026,3 18 60 0,0
23.03.2019 09:00:00 12,0 1,9 14,2 10,7 10,8 19 10 28 15 NNE 1026,6 20 60 0,0
23.03.2019 08:00:00 10,5 1,0 7,4 10,7 10,8 16 8 27 15 NNE 1026,7 20 60 0,0
23.03.2019 07:00:00 8,3 0,5 6,5 10,8 10,8 15 8 26 14 NNE 1026,7 20 0 0,0
23.03.2019 06:00:00 8,6 0,6 6,7 10,9 10,8 15 8 26 14 NNE 1026,6 20 0 0,0
23.03.2019 05:00:00 9,3 0,7 7,0 10,9 10,8 12 6 23 13 N 1026,5 20 0 0,0
23.03.2019 04:00:00 9,5 0,6 5,2 11,0 10,8 10 5 22 12 NNE 1026,7 20 0 0,0
23.03.2019 03:00:00 9,9 0,8 7,6 11,1 10,8 11 6 23 12 N 1026,9 20 0 0,0
23.03.2019 02:00:00 10,8 0,2 4,5 11,1 10,8 12 7 19 11 NNE 1027,0 20 0 0,0
23.03.2019 01:00:00 10,3 0,9 5,7 11,1 10,8 10 5 16 9 N 1026,8 20 0 0,0
23.03.2019 00:00:00 12,3 -0,3 9,1 11,1 10,7 11 6 19 11 NNE 1026,9 20 0 0,0
22.03.2019 23:00:00 13,8 -0,3 10,7 11,1 10,7 14 7 23 12 NNE 1026,8 20 0 0,0
22.03.2019 22:00:00 15,3 -1,8 11,4 11,0 10,7 13 7 21 11 N 1026,3 20 0 0,0
22.03.2019 21:00:00 16,3 -1,8 12,1 11,0 10,8 11 6 18 10 N 1026,1 20 0 0,0
22.03.2019 20:00:00 17,2 -1,0 10,9 10,9 10,7 11 6 17 9 N 1025,7 20 0 0,0
22.03.2019 19:00:00 18,1 -1,2 10,7 10,7 10,7 8 4 24 13 N 1025,2 20 23 0,0
22.03.2019 18:00:00 20,5 0,8 19,0 10,5 10,7 13 7 28 15 N 1025,0 20 60 0,0
22.03.2019 17:00:00 21,4 0,5 24,1 10,4 10,7 15 8 33 18 N 1025,0 20 60 0,0
22.03.2019 16:00:00 21,4 0,0 25,2 10,2 10,8 19 10 29 16 NNE 1025,3 20 60 0,0
22.03.2019 15:00:00 20,8 2,6 24,7 10,0 10,7 15 8 26 14 NNE 1026,2 20 60 0,0
22.03.2019 14:00:00 19,5 2,8 23,6 9,9 10,7 16 9 30 16 NNE 1026,9 19 60 0,0
22.03.2019 13:00:00 18,1 4,6 22,2 9,9 10,8 17 9 28 15 NNE 1027,8 20 60 0,0
22.03.2019 12:00:00 15,7 3,5 18,5 9,8 10,7 18 10 30 16 NNE 1028,9 19 60 0,0
22.03.2019 11:00:00 13,1 2,3 16,2 9,9 10,7 18 10 31 17 NNE 1029,5 20 60 0,0
22.03.2019 10:00:00 11,0 1,5 13,7 9,9 10,7 19 10 30 16 NNE 1030,1 20 60 0,0
22.03.2019 09:00:00 9,0 1,4 11,0 10,0 10,7 14 8 24 13 NNE 1030,4 19 60 0,0
22.03.2019 08:00:00 6,4 1,1 4,1 10,1 10,8 11 6 19 11 N 1030,3 20 50 0,0
22.03.2019 07:00:00 5,3 0,8 3,9 10,2 10,8 11 6 21 11 NNE 1029,8 19 0 0,0
22.03.2019 06:00:00 5,7 0,8 4,1 10,3 10,7 11 6 24 13 NNE 1029,4 20 0 0,0
22.03.2019 05:00:00 6,5 0,8 4,7 10,3 10,7 15 8 22 12 NNE 1029,3 20 0 0,0
22.03.2019 04:00:00 7,0 0,2 5,5 10,4 10,7 12 6 23 12 NNE 1029,3 20 0 0,0
22.03.2019 03:00:00 7,8 1,0 5,5 10,4 10,7 13 7 22 12 N 1029,4 20 0 0,0
22.03.2019 02:00:00 8,7 0,4 6,7 10,5 10,8 12 6 26 14 N 1029,5 20 0 0,0
22.03.2019 01:00:00 9,3 -0,1 7,2 10,5 10,7 12 7 20 11 NE 1029,3 20 0 0,0
22.03.2019 00:00:00 9,4 -0,2 6,8 10,5 10,8 13 7 19 11 NE 1029,2 20 0 0,0
21.03.2019 23:00:00 9,9 -0,6 7,0 10,5 10,7 11 6 19 10 NE 1029,1 20 0 0,0
21.03.2019 22:00:00 10,7 -0,5 8,1 10,5 10,7 11 6 22 12 NNE 1028,9 20 0 0,0
21.03.2019 21:00:00 11,6 -0,6 9,1 10,4 10,8 10 5 27 15 NNE 1028,7 20 0 0,0
21.03.2019 20:00:00 13,6 -0,8 10,9 10,3 10,7 14 8 26 14 N 1028,1 20 0 0,0
21.03.2019 19:00:00 13,8 0,1 11,1 10,2 10,8 9 5 32 17 NNE 1027,6 20 17 0,0
21.03.2019 18:00:00 15,4 0,8 15,3 10,0 10,8 17 9 35 19 N 1027,1 20 60 0,0
21.03.2019 17:00:00 16,4 0,1 19,0 9,9 10,7 20 11 33 18 NNE 1026,8 20 60 0,0
21.03.2019 16:00:00 16,5 0,2 21,0 9,8 10,8 19 11 32 17 NNE 1026,8 20 60 0,0
21.03.2019 15:00:00 16,1 -0,2 21,0 9,6 10,7 19 11 34 18 NNE 1027,2 20 60 0,0
21.03.2019 14:00:00 15,5 0,1 19,5 9,5 10,7 20 11 34 18 NNE 1027,9 20 60 0,0
21.03.2019 13:00:00 14,7 -0,2 19,7 9,5 10,8 20 11 35 19 NNE 1028,6 20 60 0,0
21.03.2019 12:00:00 13,5 0,8 17,0 9,5 10,8 18 10 35 19 NNE 1029,2 20 60 0,0
21.03.2019 11:00:00 11,5 0,6 14,6 9,5 10,8 21 11 36 20 NNE 1029,7 20 60 0,0
21.03.2019 10:00:00 9,8 0,4 12,7 9,6 10,8 18 10 31 17 NNE 1030,0 20 60 0,0
21.03.2019 09:00:00 7,6 -0,1 9,4 9,7 10,8 17 9 26 14 NNE 1030,4 20 60 0,0
21.03.2019 08:00:00 6,0 -1,0 2,6 9,8 10,8 15 8 21 11 NNE 1030,5 20 48 0,0
21.03.2019 07:00:00 4,0 -1,8 2,3 9,9 10,8 10 5 16 9 NE 1030,3 20 0 0,0
21.03.2019 06:00:00 4,6 -1,0 0,1 9,9 10,8 11 6 18 10 NNE 1029,8 20 0 0,0
21.03.2019 05:00:00 4,5 -1,5 0,4 10,0 10,8 7 4 15 8 NNE 1029,6 20 0 0,0
21.03.2019 04:00:00 5,7 -1,9 3,6 10,0 10,8 10 5 18 10 NE 1029,4 20 0 0,0
21.03.2019 03:00:00 7,2 -1,0 4,5 10,1 10,8 12 6 24 13 NNE 1029,4 20 0 0,0
21.03.2019 02:00:00 7,8 -1,2 5,9 10,1 10,8 14 8 23 12 NNE 1029,7 20 0 0,0
21.03.2019 01:00:00 8,4 -1,7 5,1 10,2 10,8 14 7 22 12 NNE 1029,6 20 0 0,0
21.03.2019 00:00:00 8,4 -2,3 5,1 10,2 10,8 10 5 29 16 NE 1029,9 20 0 0,0
20.03.2019 23:00:00 10,0 -2,7 8,2 10,2 10,8 16 8 28 15 NNE 1029,2 20 0 0,0
20.03.2019 22:00:00 11,5 -3,1 9,6 10,2 10,8 16 9 36 20 N 1029,0 20 0 0,0
20.03.2019 21:00:00 12,0 -3,0 10,0 10,1 10,8 22 12 41 22 N 1028,4 20 0 0,0
20.03.2019 20:00:00 12,4 -3,4 9,8 10,1 10,8 19 10 39 21 N 1028,2 20 0 0,0
20.03.2019 19:00:00 13,2 -2,7 11,1 10,0 10,8 19 10 48 26 N 1028,1 20 14 0,0
20.03.2019 18:00:00 13,9 -2,5 13,2 9,9 10,8 25 14 49 26 N 1027,4 20 60 0,0
20.03.2019 17:00:00 14,2 -2,3 16,9 9,7 10,8 22 12 54 29 N 1027,4 20 60 0,0
20.03.2019 16:00:00 14,1 -2,4 18,2 9,6 10,8 26 14 49 26 NNE 1027,3 20 60 0,0
20.03.2019 15:00:00 13,7 -1,9 18,1 9,5 10,8 27 15 53 29 N 1027,8 20 60 0,0
20.03.2019 14:00:00 13,0 -1,7 17,3 9,5 10,8 29 15 50 27 NNE 1028,5 20 60 0,0
20.03.2019 13:00:00 12,5 -2,2 16,5 9,4 10,8 30 16 53 29 NNE 1028,8 20 60 0,0
20.03.2019 12:00:00 11,5 -2,3 15,1 9,5 10,8 30 16 55 30 NNE 1029,3 20 60 0,0
20.03.2019 11:00:00 10,1 -1,3 14,2 9,5 10,8 32 17 57 31 NNE 1029,2 20 60 0,0
20.03.2019 10:00:00 9,6 -0,9 12,5 9,6 10,8 24 13 46 25 NNE 1029,3 20 60 0,0
20.03.2019 09:00:00 7,8 0,0 8,5 9,6 10,8 21 11 35 19 NNE 1029,6 20 60 0,0
20.03.2019 08:00:00 5,8 -0,7 3,9 9,7 10,8 24 13 41 22 NNE 1029,3 20 48 0,0
20.03.2019 07:00:00 4,8 -1,0 3,6 9,8 10,8 22 12 35 19 NNE 1028,7 20 0 0,0
20.03.2019 06:00:00 5,1 -0,9 3,6 9,8 10,8 16 9 47 25 NNE 1028,5 20 0 0,0
20.03.2019 05:00:00 6,1 -0,6 4,8 9,9 10,8 21 12 36 20 NNE 1027,8 20 0 0,0
20.03.2019 04:00:00 6,5 -0,9 5,0 10,0 10,8 22 12 39 21 NNE 1027,8 20 0 0,0
20.03.2019 03:00:00 6,2 -1,0 5,0 10,0 10,8 23 12 41 22 NNE 1027,8 20 0 0,0
20.03.2019 02:00:00 7,0 -1,2 5,7 10,1 10,8 22 12 37 20 NNE 1028,0 20 0 0,0
20.03.2019 01:00:00 7,2 -1,2 5,9 10,1 10,8 22 12 34 18 NNE 1028,0 20 0 0,0
20.03.2019 00:00:00 7,5 -1,2 6,2 10,2 10,8 17 9 28 15 NNE 1027,6 20 0 0,0
19.03.2019 23:00:00 8,1 -1,4 6,8 10,2 10,9 18 10 35 19 NE 1027,0 20 0 0,0
19.03.2019 22:00:00 10,2 -2,2 8,6 10,2 10,9 22 12 50 27 N 1026,3 20 0 0,0
19.03.2019 21:00:00 10,4 -2,3 8,9 10,2 10,8 20 11 50 27 N 1025,7 20 0 0,0
19.03.2019 20:00:00 10,9 -3,2 9,0 10,1 10,8 22 12 46 25 N 1025,4 20 0 0,0
19.03.2019 19:00:00 11,6 -2,6 10,1 10,1 10,9 23 13 54 29 N 1024,9 20 2 0,0
19.03.2019 18:00:00 12,2 -1,4 11,5 10,0 10,9 24 13 63 34 N 1024,0 20 34 0,0
19.03.2019 17:00:00 13,0 -1,4 12,7 9,9 10,9 27 15 53 28 NNE 1023,4 20 50 0,0
19.03.2019 16:00:00 13,2 -1,2 14,2 9,8 10,9 26 14 58 31 N 1023,5 19 44 0,0
19.03.2019 15:00:00 12,9 -1,8 13,8 9,7 10,9 28 15 57 31 N 1023,6 20 43 0,0
19.03.2019 14:00:00 12,0 -2,3 12,8 9,6 10,9 31 17 59 32 NNE 1023,7 20 48 0,0
19.03.2019 13:00:00 12,2 -1,0 16,2 9,6 10,9 37 20 58 32 NNE 1023,9 20 60 0,0

tt = Température de l'air
td = dewpoint
tt 5cm = Température de l'air 5cm
tt -20cm = Température de l'air -20cm
tt -100cm = Température de l'air -100cm
ff = Vitesse du vent
fx = gusts
dd = Direction du vent
ppp = reduced air pressure
vv = visibility
sd = Ensoleillement
rr = Quantités de précipitations

stations d'obs. à proximité